Home > Weather > Kongsberg > Past weeks

Flag for Norway Weather for the Past 2 Weeks in Kongsberg, Norway

Now
46 °F

Sunny.


Feels Like: 36 °F
Forecast: 33 / 58 °F
Wind: 35 mph from South

Location: Oseberg

Current Time: May 4, 2016 at 2:38:53 PM

Latest Report: May 4, 2016 at 1:50 PM


Visibility: 10 mi

Pressure: 30.12 "Hg

Humidity: 87%

Dew Point: 43 °F

Location of KongsbergLocation

Historic Weather in Kongsberg — Graph

°F

Kongsberg Temperature Yesterday

Maximum temperature yesterday: 45 °F (at 12:50 AM)
Minimum temperature yesterday: 43 °F (at 4:50 AM)
Average temperature yesterday: 44 °F

High & Low Weather Summary for the Past Weeks

 TemperatureHumidityPressure
High48 °F (Apr 29, 2:50 PM)100% (Apr 22, 7:50 PM)30.36 "Hg (Apr 22, 7:50 PM)
Low32 °F (Apr 25, 6:50 AM)46% (Apr 25, 6:20 PM)29.53 "Hg (Apr 25, 7:49 AM)
Average43 °F76%29.92 "Hg
* Reported Apr 19 12:50 PM — May 4 12:50 PM, Kongsberg, Weather by CustomWeather, © 2016

Note: Actual official high and low records may vary slightly from our data, if they occured in-between our weather recording intervals... More about our weather records

Advertising

Kongsberg Weather History for the Previous 24 Hours

Scroll right to see more
 ConditionsComfort  
Time TempWeatherWind HumidityBarometerVisibility
12:50 PM
Wed, May 4
46 °FScattered clouds.37 mph87%30.12 "HgN/A
12:20 PM46 °FPartly sunny.38 mph87%30.12 "HgN/A
11:50 AM46 °FPassing clouds.37 mph87%30.12 "HgN/A
10:50 AM46 °FSunny.32 mph82%30.12 "Hg10 mi
9:50 AM46 °FSunny.29 mph82%30.15 "Hg10 mi
9:20 AM46 °FSunny.26 mph82%30.15 "Hg10 mi
8:50 AM46 °FSunny.26 mph82%30.15 "Hg10 mi
8:20 AM46 °FSunny.25 mph82%30.15 "Hg10 mi
7:50 AM45 °FSunny.22 mph93%30.15 "Hg10 mi
6:50 AM45 °FSunny.24 mph93%30.15 "Hg10 mi
5:50 AM45 °FPassing clouds.22 mph93%30.12 "HgN/A
4:50 AM45 °FPassing clouds.23 mph93%30.12 "HgN/A
3:50 AM45 °FPassing clouds.22 mph93%30.09 "HgN/A
2:50 AM45 °FPassing clouds.23 mph93%30.09 "HgN/A
1:50 AM45 °FPassing clouds.25 mph93%30.07 "HgN/A
12:50 AM45 °FPassing clouds.26 mph93%30.07 "HgN/A
11:50 PM
Tue, May 3
45 °FPassing clouds.25 mph87%30.04 "HgN/A
10:50 PM45 °FPassing clouds.28 mph93%30.01 "HgN/A
9:50 PM45 °FPassing clouds.26 mph93%29.98 "HgN/A
8:50 PM45 °FPassing clouds.25 mph87%29.98 "HgN/A
7:50 PM45 °FPassing clouds.25 mph87%29.95 "HgN/A
6:50 PM45 °FScattered clouds.26 mph87%29.92 "HgN/A
6:20 PM45 °FScattered clouds.26 mph81%29.92 "HgN/A
5:50 PM43 °FDrizzle. Partly sunny.30 mph87%29.92 "HgN/A
5:20 PM45 °FScattered clouds.28 mph87%29.92 "HgN/A
4:50 PM45 °FPartly sunny.26 mph87%29.89 "HgN/A
4:20 PM45 °FScattered clouds.25 mph87%29.89 "HgN/A
3:50 PM45 °FPassing clouds.25 mph81%29.89 "HgN/A
2:50 PM45 °FPassing clouds.26 mph76%29.86 "HgN/A
2:20 PM45 °FPassing clouds.26 mph81%29.86 "HgN/A
Weather by CustomWeather, © 2016

See weather overviewHow to use our weather pages